Home > Weather > Bratislava > Past weeks

Flag for Slovakia Past Weather in Bratislava, Slovakia — Yesterday and Last 2 Weeks

Now
81 °F

Passing clouds.


Feels Like: 82 °F
Forecast: 64 / 86 °F
Wind: 6 mph from Southeast

Location: Bratislava Ivanka

Current Time: Jun 30, 2016 at 10:50:02 AM

Latest Report: Jun 30, 2016 at 10:30 AM


Visibility: N/A

Pressure: 29.98 "Hg

Humidity: 58%

Dew Point: 64 °F

Location of BratislavaLocation

Past Weather in Bratislava — Graph

°F

Bratislava Temperature Yesterday

Maximum temperature yesterday: 86 °F (at 3:00 PM)
Minimum temperature yesterday: 57 °F (at 4:00 AM)
Average temperature yesterday: 73 °F

High & Low Weather Summary for the Past Weeks

 TemperatureHumidityPressure
High91 °F (Jun 24, 2:30 PM)100% (Jun 16, 6:00 AM)30.27 "Hg (Jun 16, 6:00 AM)
Low55 °F (Jun 16, 1:00 AM)33% (Jun 29, 3:00 PM)29.56 "Hg (Jun 15, 10:00 AM)
Average71 °F67%30.00 "Hg
* Reported Jun 15 10:00 AM — Jun 30 10:00 AM, Bratislava, Weather by CustomWeather, © 2016

Note: Actual official high and low records may vary slightly from our data, if they occured in-between our weather recording intervals... More about our weather records

Advertising

Bratislava Weather History for the Previous 24 Hours

Scroll right to see more
 ConditionsComfort  
Time TempWeatherWind HumidityBarometerVisibility
10:00 AM
Thu, Jun 30
77 °FSunny.3 mph65%29.98 "Hg10 mi
9:30 AM75 °FPassing clouds.5 mph65%29.98 "HgN/A
9:00 AM73 °FPassing clouds.6 mph69%29.98 "HgN/A
8:30 AM72 °FPassing clouds.7 mph69%29.98 "HgN/A
8:00 AM70 °FSunny.7 mph73%29.98 "Hg10 mi
7:30 AM70 °FSunny.6 mph73%29.98 "Hg10 mi
7:00 AM68 °FSunny.6 mph78%29.98 "Hg10 mi
6:30 AM66 °FSunny.6 mph83%29.98 "Hg10 mi
6:00 AM66 °FSunny.2 mph78%29.98 "Hg10 mi
5:30 AM64 °FClear.3 mph83%29.98 "Hg10 mi
5:00 AM64 °FClear.3 mph83%29.98 "Hg10 mi
4:30 AM64 °FClear.2 mph83%29.98 "Hg10 mi
4:00 AM64 °FClear.3 mph83%29.98 "Hg10 mi
3:30 AM64 °FClear.3 mph83%29.98 "Hg10 mi
3:00 AM64 °FPassing clouds.3 mph83%29.98 "HgN/A
2:30 AM64 °FClear.2 mph83%29.98 "Hg10 mi
2:00 AM66 °FClear.3 mph78%29.98 "Hg10 mi
1:30 AM66 °FClear.3 mph78%29.95 "Hg10 mi
1:00 AM66 °FClear.2 mph78%29.95 "Hg10 mi
12:30 AM68 °FClear.2 mph73%29.95 "Hg10 mi
12:00 AM68 °FClear.3 mph78%29.95 "Hg10 mi
11:30 PM
Wed, Jun 29
70 °FClear.2 mph73%29.98 "Hg10 mi
11:00 PM72 °FPassing clouds.3 mph69%29.98 "HgN/A
10:30 PM72 °FPassing clouds.3 mph69%29.95 "HgN/A
10:00 PM75 °FClear.3 mph61%29.95 "Hg10 mi
9:30 PM77 °FPassing clouds.3 mph57%29.95 "HgN/A
9:00 PM81 °FSunny.1 mph48%29.95 "Hg10 mi
8:30 PM82 °FSunny.2 mph45%29.92 "Hg10 mi
8:00 PM84 °FSunny.3 mph40%29.92 "Hg10 mi
7:30 PM84 °FSunny.2 mph40%29.92 "Hg10 mi
7:00 PM84 °FPassing clouds.3 mph37%29.92 "HgN/A
6:30 PM86 °FSunny.2 mph35%29.92 "Hg10 mi
6:00 PM86 °FSunny.3 mph35%29.92 "Hg10 mi
5:30 PM86 °FPassing clouds.7 mph33%29.95 "HgN/A
5:00 PM86 °FPassing clouds.7 mph35%29.95 "HgN/A
4:30 PM86 °FPassing clouds.8 mph33%29.95 "HgN/A
4:00 PM86 °FPassing clouds.9 mph33%29.95 "HgN/A
3:30 PM86 °FSunny.3 mph35%29.95 "Hg10 mi
3:00 PM86 °FSunny.6 mph33%29.95 "Hg10 mi
2:30 PM84 °FSunny.5 mph35%29.95 "Hg10 mi
2:00 PM84 °FSunny.3 mph35%29.98 "Hg10 mi
1:30 PM82 °FPassing clouds.9 mph35%29.98 "HgN/A
1:00 PM81 °FSunny.6 mph42%29.98 "Hg10 mi
12:30 PM81 °FPassing clouds.8 mph42%29.98 "HgN/A
12:00 PM79 °FPassing clouds.6 mph45%29.98 "HgN/A
11:30 AM79 °FPassing clouds.6 mph45%30.01 "HgN/A
11:00 AM77 °FPassing clouds.3 mph47%30.01 "HgN/A
10:30 AM77 °FSunny.3 mph47%30.01 "Hg10 mi
10:00 AM73 °FPassing clouds.5 mph53%30.01 "HgN/A
Weather by CustomWeather, © 2016

See weather overviewHow to use our weather pages